map of RES home
Great Circle Mapper logo
RES - Airport
Location
City:  Resistencia, Argentina
ICAO:SARE
IATA:RES

Details
Type:Airport (Aerodrome, Airfield)
Use:Public/Civil
Latitude:2727'00"S (-27.449985)
Longitude:5903'22"W (-59.056124)
Datum:WGS 1984
Elevation:173 ft (53 m)
Variation:11.80W (WMM2015 magnetic declination)
-0.18 annual change
Runways:1
Longest:9088 × 147 ft (2770 × 45 m), paved

Time
Time Zone:UTC-3
Local Time:

Weather
METAR:SARE 300500Z 25006KT CAVOK 15/12 Q1015
TAF:SARE 292300Z 3000/3024 14005KT CAVOK TX28/3018Z TN16/3010Z PROB40 3008/3011 5000 BR NSC
BECMG 1214 02010 CAVOK

Related Locations
Nearby:
Farthest:WNZ: 12441 mi / 20021 km
Wenzhou [Intl], 33, CN

Find:

   beyond  
but within

Other Information
Maps:
NOTAMs:
Links:
Sources:

  
flag of Argentina   

Sectional Chart

Flight Planning
at skyvector.com

Satellite Image

Google Maps Satellite view

 

Copyright © 2004-2016 Karl L. Swartz. All rights reserved.
The Great Circle Mapper name and logo are trademarks of the Great Circle Mapper.
All other trademarks mentioned herein belong to their respective owners.
Please see credits for attibutions and further copyright information.

  Follow gcmap on Facebook Follow gcmap on Twitter Follow gcmap on Google+ GCmap on LinkedIn

hCard Microformat

Geo Microformat